• In India
  • List of Countries
  • For 7 days
  • Water Temperature
  • Satellite Maps
  • Weather Map
  • Weather Widgets
  • user-avatar
    Login

    Hourly Weather Lusina

    Today, 19 February, Tuesday

    Time Temperature Precipitation Wind Pressure Humidity
    00:00 +4°C° 0 mm 3 mps 746 mmHg 65%
    01:00 +4°C° 0 mm 3 mps 746 mmHg 65%
    02:00 +3°C° 0 mm 3 mps 746 mmHg 65%
    03:00 +3°C° 0 mm 3 mps 746 mmHg 66%
    04:00 +3°C° 0 mm 3 mps 745 mmHg 67%
    05:00 +3°C° 0 mm 3 mps 745 mmHg 68%
    06:00 +2°C° 0 mm 3 mps 745 mmHg 69%
    07:00 +2°C° 0 mm 3 mps 745 mmHg 70%
    08:00 +4°C° 0 mm 4 mps 745 mmHg 66%
    09:00 +5°C° 0 mm 4 mps 745 mmHg 62%
    10:00 +7°C° 0 mm 4 mps 745 mmHg 59%
    11:00 +8°C° 0 mm 4 mps 745 mmHg 58%
    12:00 +9°C° 0 mm 5 mps 745 mmHg 57%
    13:00 +10°C° 0 mm 5 mps 744 mmHg 56%
    14:00 +10°C° 0 mm 5 mps 744 mmHg 59%
    15:00 +10°C° 0 mm 4 mps 744 mmHg 62%
    16:00 +10°C° 0 mm 4 mps 744 mmHg 65%
    17:00 +8°C° 0.2 mm 4 mps 744 mmHg 71%
    18:00 +7°C° 0.2 mm 4 mps 745 mmHg 77%
    19:00 +6°C° 0.2 mm 4 mps 745 mmHg 83%
    20:00 +6°C° 0.1 mm 4 mps 745 mmHg 84%
    21:00 +5°C° 0.1 mm 4 mps 745 mmHg 85%
    22:00 +3°C° 0.1 mm 5 mps 745 mmHg 86%
    23:00 +3°C° 0 mm 5 mps 745 mmHg 85%

    Tomorrow, 20 February, Wednesday

    Time Temperature Precipitation Wind Pressure Humidity
    00:00 +3°C° 0 mm 5 mps 746 mmHg 84%
    01:00 +3°C° 0 mm 5 mps 746 mmHg 82%
    02:00 +2°C° 0 mm 5 mps 746 mmHg 83%
    03:00 +2°C° 0 mm 5 mps 746 mmHg 84%
    04:00 +2°C° 0 mm 5 mps 746 mmHg 84%
    05:00 +2°C° 0 mm 5 mps 746 mmHg 85%
    06:00 +2°C° 0 mm 5 mps 747 mmHg 85%
    07:00 +2°C° 0 mm 5 mps 747 mmHg 85%
    08:00 +3°C° 0 mm 5 mps 748 mmHg 81%
    09:00 +3°C° 0 mm 6 mps 748 mmHg 77%
    10:00 +4°C° 0 mm 6 mps 748 mmHg 73%
    11:00 +5°C° 0 mm 6 mps 749 mmHg 71%
    12:00 +5°C° 0 mm 6 mps 749 mmHg 68%
    13:00 +7°C° 0 mm 6 mps 749 mmHg 66%
    14:00 +6°C° 0 mm 5 mps 749 mmHg 66%
    15:00 +6°C° 0 mm 5 mps 749 mmHg 67%
    16:00 +6°C° 0 mm 4 mps 749 mmHg 68%
    17:00 +6°C° 0 mm 4 mps 749 mmHg 72%
    18:00 +5°C° 0 mm 3 mps 750 mmHg 76%
    19:00 +4°C° 0 mm 3 mps 750 mmHg 80%
    20:00 +4°C° 0 mm 3 mps 750 mmHg 80%
    21:00 +4°C° 0 mm 3 mps 750 mmHg 80%
    22:00 +4°C° 0 mm 3 mps 750 mmHg 80%
    23:00 +4°C° 0 mm 3 mps 750 mmHg 79%

    Day after tomorrow, 21 February, Thursday

    Time Temperature Precipitation Wind Pressure Humidity
    00:00 +3°C° 0 mm 3 mps 751 mmHg 78%
    01:00 +3°C° 0 mm 3 mps 751 mmHg 77%
    02:00 +3°C° 0 mm 3 mps 750 mmHg 76%
    03:00 +3°C° 0 mm 3 mps 750 mmHg 76%
    04:00 +4°C° 0 mm 3 mps 750 mmHg 76%
    05:00 +4°C° 0.1 mm 4 mps 750 mmHg 77%
    06:00 +4°C° 0.1 mm 4 mps 750 mmHg 78%
    07:00 +4°C° 0.1 mm 4 mps 750 mmHg 79%
    08:00 +5°C° 0.1 mm 5 mps 750 mmHg 76%
    09:00 +6°C° 0.1 mm 5 mps 750 mmHg 74%
    10:00 +5°C° 0.1 mm 6 mps 750 mmHg 71%
    11:00 +7°C° 0.1 mm 6 mps 750 mmHg 69%
    12:00 +7°C° 0.1 mm 6 mps 750 mmHg 67%
    13:00 +8°C° 0.1 mm 6 mps 750 mmHg 65%
    14:00 +7°C° 0.3 mm 6 mps 749 mmHg 69%
    15:00 +7°C° 0.3 mm 6 mps 749 mmHg 73%
    16:00 +7°C° 0.3 mm 6 mps 749 mmHg 77%
    17:00 +7°C° 0.5 mm 6 mps 749 mmHg 80%
    18:00 +5°C° 0.5 mm 6 mps 749 mmHg 84%
    19:00 +5°C° 0.5 mm 6 mps 750 mmHg 88%
    20:00 +5°C° 0.2 mm 6 mps 750 mmHg 89%
    21:00 +5°C° 0.2 mm 6 mps 750 mmHg 90%
    22:00 +6°C° 0.2 mm 5 mps 750 mmHg 91%
    23:00 +5°C° 0.2 mm 6 mps 750 mmHg 90%

    22 February, Friday

    Time Temperature Precipitation Wind Pressure Humidity
    00:00 +5°C° 0.2 mm 6 mps 751 mmHg 90%
    01:00 +5°C° 0.2 mm 6 mps 751 mmHg 90%
    02:00 +5°C° 0.3 mm 6 mps 751 mmHg 90%
    03:00 +5°C° 0.3 mm 7 mps 751 mmHg 89%
    04:00 +5°C° 0.3 mm 7 mps 752 mmHg 89%
    05:00 +5°C° 0.2 mm 7 mps 752 mmHg 89%
    06:00 +4°C° 0.2 mm 6 mps 753 mmHg 89%
    07:00 +4°C° 0.2 mm 6 mps 754 mmHg 89%
    08:00 +3°C° 0.1 mm 6 mps 755 mmHg 86%
    09:00 +1°C° 0.1 mm 5 mps 756 mmHg 84%
    10:00 0°C° 0.1 mm 5 mps 757 mmHg 81%
    11:00 0°C° 0 mm 5 mps 758 mmHg 77%
    12:00 0°C° 0 mm 4 mps 758 mmHg 72%
    13:00 +1°C° 0 mm 4 mps 759 mmHg 67%
    14:00 +1°C° 0 mm 4 mps 759 mmHg 64%
    15:00 +1°C° 0 mm 4 mps 760 mmHg 61%
    16:00 +1°C° 0 mm 4 mps 760 mmHg 57%
    17:00 +1°C° 0 mm 3 mps 761 mmHg 60%
    18:00 0°C° 0 mm 3 mps 761 mmHg 63%
    19:00 -1°C° 0 mm 2 mps 762 mmHg 67%
    20:00 -2°C° 0 mm 2 mps 762 mmHg 67%
    21:00 -2°C° 0 mm 2 mps 763 mmHg 68%
    22:00 -2°C° 0 mm 2 mps 763 mmHg 69%
    23:00 -1°C° 0 mm 1 mps 763 mmHg 68%

    23 February, Saturday

    Time Temperature Precipitation Wind Pressure Humidity
    00:00 -1°C° 0 mm 1 mps 764 mmHg 67%
    01:00 -1°C° 0 mm 1 mps 764 mmHg 67%
    02:00 -1°C° 0 mm 1 mps 764 mmHg 65%
    03:00 -1°C° 0 mm 1 mps 763 mmHg 64%
    04:00 -1°C° 0 mm 1 mps 763 mmHg 62%
    05:00 -1°C° 0 mm 1 mps 763 mmHg 60%
    06:00 -1°C° 0 mm 1 mps 763 mmHg 58%
    07:00 -1°C° 0 mm 1 mps 763 mmHg 56%
    08:00 -2°C° 0 mm 2 mps 763 mmHg 48%
    09:00 +1°C° 0 mm 2 mps 763 mmHg 40%
    10:00 +2°C° 0 mm 2 mps 763 mmHg 32%
    11:00 +3°C° 0 mm 2 mps 763 mmHg 29%
    12:00 +6°C° 0 mm 1 mps 763 mmHg 27%
    13:00 +7°C° 0 mm 1 mps 762 mmHg 24%
    14:00 +7°C° 0 mm 1 mps 762 mmHg 28%
    15:00 +6°C° 0 mm 1 mps 761 mmHg 32%
    16:00 +6°C° 0 mm 1 mps 761 mmHg 37%
    17:00 +4°C° 0 mm 0 mps 761 mmHg 39%
    18:00 +3°C° 0 mm 0 mps 760 mmHg 41%
    19:00 +1°C° 0 mm 0 mps 760 mmHg 43%
    20:00 +1°C° 0 mm 0 mps 760 mmHg 45%
    21:00 +2°C° 0 mm 1 mps 760 mmHg 47%
    22:00 +2°C° 0 mm 1 mps 760 mmHg 49%
    23:00 +2°C° 0 mm 1 mps 760 mmHg 50%

    24 February, Sunday

    Time Temperature Precipitation Wind Pressure Humidity
    00:00 +1°C° 0 mm 1 mps 760 mmHg 51%
    01:00 +1°C° 0 mm 1 mps 760 mmHg 53%
    02:00 +1°C° 0 mm 1 mps 760 mmHg 53%
    03:00 +1°C° 0 mm 1 mps 760 mmHg 54%
    04:00 0°C° 0 mm 0 mps 760 mmHg 55%
    05:00 0°C° 0 mm 0 mps 760 mmHg 55%
    06:00 0°C° 0 mm 0 mps 760 mmHg 55%
    07:00 0°C° 0 mm 0 mps 760 mmHg 55%
    08:00 +1°C° 0 mm 0 mps 760 mmHg 53%
    09:00 +3°C° 0 mm 0 mps 761 mmHg 51%
    10:00 +4°C° 0 mm 0 mps 761 mmHg 49%
    11:00 +5°C° 0 mm 0 mps 761 mmHg 51%
    12:00 +7°C° 0 mm 1 mps 761 mmHg 53%
    13:00 +8°C° 0 mm 1 mps 761 mmHg 56%
    14:00 +8°C° 0 mm 1 mps 760 mmHg 59%
    15:00 +7°C° 0 mm 1 mps 760 mmHg 62%
    16:00 +7°C° 0 mm 1 mps 760 mmHg 65%
    17:00 +6°C° 0 mm 1 mps 759 mmHg 70%
    18:00 +4°C° 0 mm 0 mps 759 mmHg 75%
    19:00 +2°C° 0 mm 0 mps 759 mmHg 80%
    20:00 +2°C° 0 mm 0 mps 759 mmHg 81%
    21:00 +2°C° 0 mm 0 mps 759 mmHg 81%
    22:00 +3°C° 0 mm 1 mps 759 mmHg 81%
    23:00 +3°C° 0 mm 1 mps 758 mmHg 82%
    Show more